QPF
0.02 0.03 0.04 0.04 0.04 0.05 0.06 0.05 0.04 0.04 0.04 0.04 0.04 0.04 0.04 0.03 0.03 0.03 0.04 0.04 0.05 0.05 0.06 0.07 0.06 0.08 0.09 0.08 0.07 0.06 0.07 0.07 0.08 0.10 0.09 0.07 0.08 0.07 0.06 0.05 0.03 0.03 0.03
0.02 0.02 0.03 0.04 0.05 0.06 0.06 0.05 0.05 0.05 0.04 0.06 0.06 0.06 0.05 0.05 0.04 0.03 0.02 0.03 0.04 0.04 0.04 0.05 0.04 0.06 0.08 0.08 0.08 0.06 0.06 0.07 0.06 0.07 0.09 0.09 0.08 0.08 0.07 0.08 0.05 0.04 0.03
0.03 0.03 0.03 0.04 0.05 0.06 0.07 0.08 0.07 0.06 0.06 0.07 0.07 0.06 0.06 0.07 0.06 0.05 0.04 0.04 0.03 0.04 0.03 0.03 0.03 0.05 0.06 0.07 0.07 0.07 0.06 0.08 0.09 0.08 0.08 0.09 0.08 0.07 0.07 0.06 0.06 0.07 0.03
0.02 0.03 0.04 0.04 0.04 0.04 0.05 0.05 0.04 0.04 0.04 0.05 0.05 0.05 0.06 0.07 0.06 0.05 0.05 0.05 0.05 0.04 0.04 0.03 0.02 0.03 0.04 0.05 0.05 0.06 0.07 0.07 0.08 0.08 0.09 0.08 0.08 0.08 0.08 0.07 0.07 0.06 0.04
0.02 0.04 0.04 0.04 0.03 0.04 0.05 0.03 0.02 0.02 0.02 0.02 0.03 0.04 0.04 0.04 0.03 0.03 0.04 0.04 0.04 0.04 0.04 0.04 0.03 0.02 0.02 0.02 0.02 0.03 0.05 0.05 0.05 0.06 0.06 0.07 0.08 0.09 0.10 0.09 0.08 0.08 0.07
0.05 0.04 0.03 0.03 0.03 0.04 0.04 0.02 0.02 0.02 0.01 0.01 0.02 0.02 0.02 0.01 0.01 0.02 0.03 0.03 0.04 0.04 0.04 0.04 0.04 0.03 0.03 0.03 0.02 0.02 0.03 0.04 0.05 0.06 0.06 0.07 0.07 0.08 0.09 0.08 0.09 0.11 0.09
0.04 0.03 0.03 0.03 0.04 0.05 0.04 0.02 0.02 0.02 0.02 0.02 0.03 0.03 0.03 0.03 0.03 0.03 0.03 0.03 0.03 0.04 0.03 0.03 0.04 0.03 0.04 0.04 0.05 0.04 0.03 0.03 0.05 0.06 0.06 0.06 0.07 0.08 0.10 0.08 0.08 0.08 0.07
0.03 0.03 0.03 0.03 0.03 0.03 0.03 0.02 0.02 0.02 0.02 0.02 0.03 0.05 0.07 0.06 0.06 0.04 0.03 0.03 0.03 0.03 0.03 0.03 0.03 0.03 0.03 0.04 0.04 0.05 0.05 0.05 0.05 0.05 0.05 0.05 0.06 0.08 0.08 0.08 0.10 0.11 0.10
0.02 0.02 0.03 0.03 0.04 0.04 0.02 0.02 0.02 0.02 0.02 0.02 0.02 0.03 0.05 0.05 0.07 0.07 0.05 0.03 0.03 0.02 0.02 0.03 0.03 0.03 0.02 0.02 0.03 0.04 0.06 0.06 0.06 0.06 0.05 0.05 0.06 0.08 0.09 0.09 0.09 0.11 0.09
0.03 0.03 0.03 0.03 0.04 0.05 0.04 0.02 0.02 0.02 0.02 0.02 0.02 0.02 0.02 0.03 0.03 0.04 0.07 0.06 0.04 0.02 0.02 0.03 0.03 0.02 0.01 0.01 0.01 0.03 0.04 0.05 0.07 0.07 0.06 0.06 0.07 0.08 0.08 0.08 0.08 0.09 0.08
0.03 0.03 0.03 0.03 0.03 0.03 0.03 0.03 0.03 0.03 0.02 0.02 0.02 0.02 0.02 0.02 0.01 0.02 0.03 0.03 0.04 0.03 0.03 0.02 0.02 0.03 0.01 0.01 0.01 0.02 0.03 0.04 0.06 0.08 0.08 0.09 0.09 0.09 0.09 0.07 0.07 0.09 0.09
0.03 0.02 0.03 0.03 0.02 0.02 0.02 0.03 0.03 0.03 0.03 0.03 0.03 0.02 0.02 0.01 0.01 0.01 0.01 0.01 0.01 0.02 0.02 0.03 0.04 0.04 0.03 0.03 0.03 0.03 0.04 0.04 0.04 0.06 0.08 0.10 0.11 0.11 0.10 0.08 0.08 0.08 0.08
0.02 0.03 0.03 0.03 0.03 0.02 0.02 0.02 0.02 0.02 0.03 0.03 0.03 0.01 0.01 0.01 0.01 0.00 0.00 0.01 0.01 0.01 0.01 0.03 0.04 0.03 0.02 0.03 0.04 0.04 0.04 0.04 0.05 0.07 0.09 0.10 0.12 0.13 0.13 0.14 0.13 0.11 0.11
0.03 0.03 0.03 0.03 0.03 0.03 0.03 0.03 0.02 0.01 0.01 0.01 0.01 0.01 0.01 0.01 0.01 0.01 0.01 0.02 0.02 0.01 0.01 0.02 0.02 0.02 0.02 0.02 0.02 0.02 0.03 0.03 0.04 0.05 0.07 0.08 0.10 0.12 0.13 0.15 0.17 0.17 0.15
0.04 0.04 0.03 0.03 0.03 0.03 0.03 0.03 0.03 0.02 0.02 0.01 0.01 0.01 0.01 0.01 0.02 0.02 0.02 0.02 0.02 0.02 0.03 0.02 0.02 0.02 0.01 0.01 0.01 0.01 0.02 0.03 0.04 0.05 0.06 0.06 0.07 0.08 0.09 0.10 0.14 0.17 0.18
0.04 0.03 0.03 0.03 0.03 0.03 0.03 0.03 0.03 0.03 0.03 0.02 0.02 0.01 0.01 0.01 0.02 0.02 0.02 0.03 0.03 0.03 0.02 0.01 0.01 0.01 0.01 0.01 0.01 0.02 0.03 0.04 0.05 0.06 0.06 0.06 0.07 0.07 0.07 0.08 0.09 0.12 0.14
0.03 0.02 0.02 0.02 0.02 0.03 0.03 0.03 0.03 0.03 0.02 0.02 0.01 0.01 0.01 0.01 0.01 0.01 0.01 0.02 0.02 0.03 0.02 0.02 0.03 0.03 0.02 0.02 0.03 0.03 0.04 0.06 0.07 0.07 0.07 0.07 0.06 0.06 0.06 0.07 0.09 0.11 0.12
0.02 0.02 0.02 0.02 0.02 0.02 0.03 0.03 0.03 0.02 0.02 0.02 0.01 0.01 0.01 0.01 0.00 0.00 0.00 0.01 0.01 0.02 0.03 0.04 0.04 0.04 0.04 0.04 0.04 0.04 0.05 0.06 0.07 0.08 0.08 0.08 0.08 0.08 0.08 0.09 0.10 0.10 0.11
0.03 0.03 0.02 0.02 0.03 0.03 0.03 0.02 0.02 0.02 0.02 0.02 0.02 0.01 0.01 0.01 0.00 0.00 0.01 0.01 0.01 0.02 0.03 0.04 0.04 0.04 0.04 0.04 0.05 0.05 0.05 0.06 0.06 0.07 0.08 0.09 0.10 0.11 0.10 0.09 0.10 0.11 0.10
0.03 0.03 0.03 0.03 0.04 0.03 0.03 0.02 0.02 0.02 0.02 0.02 0.02 0.02 0.02 0.02 0.01 0.01 0.01 0.01 0.02 0.02 0.03 0.04 0.04 0.04 0.04 0.04 0.04 0.05 0.05 0.06 0.06 0.07 0.07 0.07 0.07 0.08 0.08 0.08 0.08 0.06 0.06
0.01 0.03 0.05 0.04 0.04 0.03 0.03 0.03 0.04 0.04 0.04 0.03 0.02 0.03 0.03 0.02 0.02 0.02 0.01 0.02 0.02 0.03 0.04 0.04 0.04 0.04 0.04 0.04 0.04 0.04 0.04 0.04 0.04 0.04 0.03 0.03 0.04 0.04 0.05 0.05 0.04 0.05 0.07
0.02 0.02 0.04 0.04 0.04 0.04 0.04 0.04 0.05 0.05 0.04 0.04 0.05 0.05 0.04 0.02 0.01 0.02 0.02 0.02 0.03 0.04 0.04 0.04 0.04 0.04 0.03 0.04 0.03 0.03 0.03 0.03 0.02 0.02 0.02 0.02 0.02 0.03 0.03 0.04 0.05 0.06 0.08
0.02 0.03 0.04 0.04 0.04 0.05 0.05 0.05 0.05 0.04 0.05 0.06 0.06 0.06 0.04 0.02 0.01 0.01 0.03 0.03 0.03 0.04 0.04 0.04 0.03 0.03 0.03 0.03 0.03 0.03 0.03 0.02 0.01 0.01 0.01 0.01 0.01 0.02 0.02 0.03 0.04 0.05 0.06
0.02 0.03 0.03 0.03 0.04 0.04 0.04 0.04 0.04 0.04 0.05 0.06 0.07 0.06 0.04 0.03 0.03 0.02 0.02 0.03 0.03 0.04 0.04 0.03 0.02 0.02 0.03 0.02 0.02 0.02 0.01 0.01 0.01 0.01 0.01 0.01 0.01 0.02 0.02 0.04 0.05 0.05 0.05
0.03 0.02 0.03 0.03 0.03 0.04 0.04 0.05 0.06 0.05 0.05 0.06 0.08 0.09 0.08 0.06 0.04 0.02 0.02 0.02 0.03 0.03 0.03 0.02 0.02 0.02 0.02 0.03 0.03 0.02 0.02 0.02 0.01 0.01 0.01 0.01 0.01 0.02 0.02 0.03 0.04 0.05 0.05
0.03 0.03 0.04 0.04 0.05 0.05 0.04 0.04 0.05 0.06 0.06 0.06 0.06 0.07 0.09 0.10 0.09 0.06 0.04 0.03 0.01 0.01 0.01 0.01 0.01 0.02 0.02 0.02 0.03 0.03 0.03 0.03 0.03 0.02 0.02 0.01 0.01 0.02 0.01 0.02 0.02 0.03 0.04
MSLP
1004.33 1005.28 1006.10 1006.75 1007.23 1007.57 1007.83 1008.07 1008.35 1008.69 1009.12 1009.63 1010.19 1010.73 1011.22 1011.62 1011.91 1012.08 1012.15 1012.16 1012.14 1012.10 1012.08 1012.05 1012.03 1011.96 1011.84 1011.62 1011.31 1010.88 1010.36 1009.76 1009.09 1008.39 1007.67 1006.96 1006.27 1005.64 1005.08 1004.61 1004.25 1004.04 1003.97
1003.56 1004.56 1005.43 1006.16 1006.73 1007.17 1007.53 1007.87 1008.23 1008.65 1009.14 1009.70 1010.30 1010.87 1011.39 1011.81 1012.10 1012.27 1012.33 1012.30 1012.21 1012.10 1011.98 1011.86 1011.74 1011.59 1011.41 1011.17 1010.86 1010.47 1010.00 1009.46 1008.86 1008.22 1007.54 1006.85 1006.17 1005.51 1004.91 1004.39 1003.97 1003.69 1003.57
1003.01 1004.04 1004.97 1005.76 1006.42 1006.96 1007.42 1007.85 1008.30 1008.79 1009.34 1009.93 1010.55 1011.13 1011.66 1012.07 1012.36 1012.52 1012.55 1012.48 1012.35 1012.17 1011.97 1011.76 1011.55 1011.33 1011.08 1010.80 1010.47 1010.09 1009.65 1009.15 1008.59 1007.98 1007.33 1006.66 1005.97 1005.30 1004.68 1004.13 1003.68 1003.37 1003.21
1002.72 1003.77 1004.74 1005.60 1006.33 1006.96 1007.51 1008.03 1008.55 1009.10 1009.68 1010.29 1010.90 1011.48 1011.98 1012.37 1012.64 1012.78 1012.79 1012.69 1012.52 1012.29 1012.04 1011.77 1011.49 1011.20 1010.90 1010.57 1010.21 1009.81 1009.36 1008.86 1008.31 1007.72 1007.08 1006.41 1005.72 1005.05 1004.42 1003.87 1003.41 1003.10 1002.94
1002.69 1003.74 1004.74 1005.64 1006.43 1007.13 1007.75 1008.34 1008.92 1009.50 1010.10 1010.71 1011.30 1011.84 1012.30 1012.66 1012.89 1013.00 1012.99 1012.88 1012.69 1012.45 1012.17 1011.86 1011.55 1011.22 1010.87 1010.50 1010.10 1009.67 1009.19 1008.67 1008.10 1007.49 1006.84 1006.16 1005.47 1004.81 1004.18 1003.64 1003.21 1002.92 1002.79
1002.87 1003.92 1004.91 1005.82 1006.65 1007.39 1008.06 1008.70 1009.32 1009.92 1010.53 1011.11 1011.67 1012.16 1012.56 1012.87 1013.06 1013.14 1013.12 1013.01 1012.82 1012.59 1012.31 1012.01 1011.69 1011.34 1010.97 1010.57 1010.13 1009.66 1009.14 1008.58 1007.98 1007.33 1006.66 1005.97 1005.28 1004.62 1004.03 1003.52 1003.13 1002.88 1002.80
1003.20 1004.22 1005.19 1006.09 1006.91 1007.66 1008.36 1009.02 1009.66 1010.27 1010.87 1011.42 1011.93 1012.37 1012.72 1012.97 1013.12 1013.18 1013.15 1013.05 1012.89 1012.68 1012.44 1012.17 1011.86 1011.53 1011.15 1010.73 1010.27 1009.76 1009.21 1008.61 1007.96 1007.29 1006.59 1005.89 1005.20 1004.56 1004.00 1003.53 1003.20 1003.01 1002.98
1003.63 1004.59 1005.50 1006.35 1007.14 1007.88 1008.58 1009.24 1009.88 1010.49 1011.07 1011.60 1012.06 1012.45 1012.74 1012.95 1013.07 1013.11 1013.08 1013.00 1012.87 1012.71 1012.52 1012.29 1012.02 1011.72 1011.36 1010.94 1010.47 1009.94 1009.36 1008.73 1008.06 1007.37 1006.66 1005.96 1005.29 1004.68 1004.15 1003.74 1003.46 1003.34 1003.37
1004.07 1004.95 1005.79 1006.57 1007.30 1008.00 1008.68 1009.34 1009.97 1010.58 1011.14 1011.64 1012.07 1012.42 1012.68 1012.85 1012.95 1012.98 1012.96 1012.90 1012.81 1012.69 1012.54 1012.36 1012.14 1011.87 1011.54 1011.14 1010.68 1010.15 1009.57 1008.93 1008.26 1007.57 1006.88 1006.20 1005.56 1004.99 1004.52 1004.16 1003.94 1003.86 1003.94
1004.48 1005.27 1006.02 1006.72 1007.39 1008.04 1008.69 1009.33 1009.96 1010.56 1011.12 1011.61 1012.02 1012.35 1012.59 1012.74 1012.82 1012.85 1012.83 1012.79 1012.72 1012.64 1012.53 1012.39 1012.21 1011.97 1011.67 1011.30 1010.86 1010.36 1009.80 1009.19 1008.55 1007.90 1007.25 1006.62 1006.03 1005.52 1005.10 1004.79 1004.61 1004.58 1004.69
1004.80 1005.52 1006.18 1006.81 1007.42 1008.03 1008.65 1009.28 1009.91 1010.51 1011.07 1011.56 1011.98 1012.30 1012.53 1012.67 1012.75 1012.77 1012.76 1012.72 1012.67 1012.60 1012.51 1012.40 1012.23 1012.02 1011.75 1011.41 1011.01 1010.55 1010.04 1009.49 1008.91 1008.33 1007.75 1007.19 1006.68 1006.23 1005.86 1005.60 1005.47 1005.45 1005.57
1005.02 1005.67 1006.27 1006.84 1007.41 1008.00 1008.60 1009.23 1009.86 1010.48 1011.05 1011.56 1011.98 1012.31 1012.54 1012.69 1012.77 1012.79 1012.77 1012.73 1012.68 1012.61 1012.51 1012.40 1012.24 1012.04 1011.78 1011.48 1011.12 1010.71 1010.27 1009.80 1009.32 1008.83 1008.34 1007.88 1007.45 1007.08 1006.77 1006.56 1006.44 1006.43 1006.54
1005.09 1005.71 1006.28 1006.82 1007.38 1007.96 1008.57 1009.21 1009.86 1010.50 1011.10 1011.63 1012.07 1012.41 1012.66 1012.81 1012.89 1012.91 1012.89 1012.83 1012.76 1012.67 1012.55 1012.42 1012.25 1012.04 1011.80 1011.52 1011.21 1010.87 1010.51 1010.13 1009.75 1009.37 1009.00 1008.64 1008.30 1008.01 1007.76 1007.57 1007.47 1007.45 1007.53
1005.01 1005.63 1006.20 1006.75 1007.32 1007.92 1008.56 1009.23 1009.90 1010.56 1011.18 1011.74 1012.20 1012.56 1012.83 1012.99 1013.08 1013.10 1013.07 1013.00 1012.90 1012.78 1012.64 1012.47 1012.28 1012.07 1011.83 1011.58 1011.31 1011.03 1010.75 1010.47 1010.20 1009.93 1009.66 1009.41 1009.16 1008.93 1008.74 1008.58 1008.47 1008.44 1008.48
1004.79 1005.42 1006.02 1006.61 1007.22 1007.86 1008.54 1009.23 1009.94 1010.62 1011.26 1011.84 1012.32 1012.70 1012.98 1013.17 1013.27 1013.29 1013.26 1013.18 1013.06 1012.92 1012.75 1012.56 1012.35 1012.13 1011.90 1011.67 1011.44 1011.22 1011.01 1010.82 1010.64 1010.47 1010.31 1010.14 1009.97 1009.80 1009.64 1009.49 1009.38 1009.32 1009.32
1004.44 1005.11 1005.75 1006.40 1007.06 1007.74 1008.45 1009.18 1009.91 1010.61 1011.27 1011.85 1012.35 1012.75 1013.05 1013.25 1013.37 1013.41 1013.39 1013.31 1013.20 1013.05 1012.87 1012.67 1012.46 1012.24 1012.02 1011.81 1011.61 1011.44 1011.30 1011.18 1011.07 1010.98 1010.89 1010.79 1010.67 1010.55 1010.41 1010.27 1010.14 1010.05 1010.01
1004.04 1004.73 1005.42 1006.11 1006.82 1007.54 1008.28 1009.03 1009.76 1010.47 1011.13 1011.72 1012.22 1012.63 1012.95 1013.17 1013.32 1013.38 1013.39 1013.34 1013.24 1013.11 1012.95 1012.77 1012.57 1012.37 1012.17 1011.99 1011.84 1011.71 1011.61 1011.54 1011.48 1011.44 1011.40 1011.34 1011.26 1011.15 1011.02 1010.88 1010.74 1010.62 1010.55
1003.64 1004.35 1005.06 1005.78 1006.51 1007.26 1008.00 1008.75 1009.48 1010.17 1010.82 1011.39 1011.89 1012.31 1012.64 1012.89 1013.07 1013.17 1013.22 1013.21 1013.16 1013.07 1012.95 1012.81 1012.65 1012.50 1012.34 1012.20 1012.08 1011.99 1011.93 1011.89 1011.86 1011.84 1011.82 1011.78 1011.71 1011.61 1011.49 1011.34 1011.19 1011.06 1010.95
1003.32 1004.01 1004.72 1005.44 1006.16 1006.90 1007.63 1008.36 1009.06 1009.72 1010.34 1010.89 1011.38 1011.79 1012.13 1012.40 1012.61 1012.76 1012.85 1012.90 1012.91 1012.88 1012.83 1012.75 1012.66 1012.56 1012.47 1012.38 1012.31 1012.25 1012.22 1012.20 1012.19 1012.18 1012.15 1012.11 1012.04 1011.95 1011.82 1011.68 1011.52 1011.37 1011.26
1003.12 1003.77 1004.43 1005.11 1005.81 1006.50 1007.20 1007.87 1008.53 1009.14 1009.72 1010.24 1010.70 1011.11 1011.45 1011.74 1011.97 1012.16 1012.31 1012.41 1012.49 1012.53 1012.55 1012.56 1012.54 1012.52 1012.50 1012.47 1012.45 1012.44 1012.43 1012.43 1012.43 1012.42 1012.39 1012.34 1012.27 1012.17 1012.05 1011.91 1011.76 1011.62 1011.50
1003.05 1003.63 1004.23 1004.85 1005.47 1006.11 1006.73 1007.35 1007.94 1008.50 1009.02 1009.51 1009.94 1010.32 1010.66 1010.95 1011.21 1011.42 1011.61 1011.76 1011.90 1012.01 1012.11 1012.19 1012.26 1012.32 1012.37 1012.42 1012.46 1012.50 1012.52 1012.54 1012.55 1012.54 1012.51 1012.46 1012.39 1012.30 1012.18 1012.06 1011.94 1011.82 1011.72
1003.10 1003.58 1004.10 1004.63 1005.18 1005.73 1006.28 1006.82 1007.34 1007.84 1008.31 1008.75 1009.15 1009.51 1009.83 1010.12 1010.38 1010.61 1010.81 1011.00 1011.18 1011.34 1011.50 1011.66 1011.80 1011.94 1012.07 1012.19 1012.29 1012.38 1012.45 1012.50 1012.52 1012.53 1012.50 1012.46 1012.40 1012.32 1012.24 1012.14 1012.05 1011.97 1011.90
1003.20 1003.60 1004.02 1004.46 1004.92 1005.38 1005.85 1006.31 1006.77 1007.21 1007.63 1008.03 1008.40 1008.74 1009.04 1009.31 1009.56 1009.79 1010.00 1010.20 1010.39 1010.59 1010.78 1010.98 1011.19 1011.39 1011.58 1011.77 1011.93 1012.07 1012.19 1012.27 1012.33 1012.35 1012.35 1012.33 1012.29 1012.24 1012.19 1012.14 1012.09 1012.06 1012.03
1003.29 1003.61 1003.95 1004.30 1004.67 1005.06 1005.45 1005.85 1006.25 1006.65 1007.04 1007.40 1007.75 1008.07 1008.35 1008.61 1008.84 1009.05 1009.25 1009.44 1009.63 1009.83 1010.04 1010.26 1010.50 1010.74 1010.98 1011.21 1011.43 1011.62 1011.77 1011.90 1011.98 1012.03 1012.06 1012.06 1012.06 1012.04 1012.03 1012.03 1012.04 1012.05 1012.07
1003.33 1003.58 1003.85 1004.13 1004.43 1004.75 1005.08 1005.44 1005.80 1006.17 1006.54 1006.90 1007.24 1007.55 1007.83 1008.08 1008.29 1008.49 1008.66 1008.83 1008.99 1009.17 1009.37 1009.59 1009.83 1010.09 1010.35 1010.61 1010.85 1011.08 1011.27 1011.42 1011.53 1011.61 1011.66 1011.69 1011.71 1011.74 1011.76 1011.81 1011.86 1011.92 1011.99
1003.29 1003.50 1003.72 1003.95 1004.19 1004.46 1004.76 1005.08 1005.43 1005.80 1006.17 1006.54 1006.89 1007.22 1007.51 1007.76 1007.98 1008.16 1008.31 1008.45 1008.58 1008.73 1008.90 1009.09 1009.31 1009.56 1009.81 1010.07 1010.33 1010.56 1010.76 1010.92 1011.05 1011.14 1011.21 1011.26 1011.30 1011.34 1011.40 1011.47 1011.56 1011.67 1011.78
Thickness
5797 5793 5790 5787 5784 5781 5777 5775 5773 5771 5769 5766 5765 5762 5760 5758 5756 5754 5753 5752 5749 5748 5747 5746 5745 5745 5744 5744 5744 5742 5739 5736 5731 5735 5738 5740 5739 5738 5737 5737 5737 5736 5734
5795 5791 5787 5784 5780 5777 5773 5771 5769 5766 5764 5762 5761 5758 5756 5754 5752 5750 5748 5747 5746 5743 5743 5742 5741 5741 5739 5738 5737 5736 5735 5733 5730 5727 5730 5732 5733 5734 5733 5732 5733 5733 5733
5790 5785 5782 5779 5776 5772 5770 5768 5765 5762 5759 5758 5756 5753 5751 5750 5747 5745 5744 5743 5741 5740 5739 5738 5736 5735 5732 5732 5731 5730 5729 5729 5727 5725 5725 5728 5728 5729 5728 5727 5728 5727 5729
5785 5781 5776 5773 5771 5769 5766 5763 5761 5758 5755 5752 5751 5749 5747 5745 5742 5740 5738 5737 5737 5736 5735 5734 5732 5730 5728 5727 5726 5725 5724 5722 5722 5721 5720 5721 5722 5723 5721 5719 5718 5720 5721
5779 5775 5772 5769 5767 5764 5760 5758 5755 5752 5750 5747 5745 5743 5742 5740 5737 5734 5732 5732 5730 5729 5729 5728 5727 5726 5724 5722 5722 5720 5719 5717 5716 5715 5715 5715 5715 5713 5713 5715 5712 5714 5715
5773 5769 5767 5764 5760 5757 5754 5752 5749 5746 5744 5742 5739 5737 5736 5734 5731 5728 5727 5726 5724 5723 5722 5722 5721 5720 5719 5717 5717 5715 5713 5711 5710 5709 5709 5708 5708 5708 5709 5708 5706 5704 5704
5768 5765 5761 5758 5754 5751 5749 5746 5742 5740 5738 5735 5733 5731 5729 5726 5724 5722 5721 5720 5719 5718 5716 5715 5715 5716 5714 5712 5711 5710 5708 5707 5706 5705 5704 5704 5704 5705 5703 5702 5701 5699 5700
5762 5759 5756 5752 5749 5746 5743 5740 5738 5735 5732 5730 5728 5726 5723 5720 5717 5715 5714 5714 5714 5714 5712 5711 5709 5707 5708 5705 5704 5703 5702 5702 5702 5702 5701 5701 5702 5702 5700 5699 5697 5697 5699
5756 5753 5750 5747 5744 5740 5737 5734 5733 5730 5728 5726 5723 5721 5717 5714 5711 5709 5707 5707 5707 5707 5707 5706 5704 5702 5699 5698 5696 5694 5694 5694 5697 5698 5697 5696 5696 5696 5695 5692 5691 5688 5688
5750 5748 5746 5743 5739 5735 5732 5730 5728 5725 5723 5721 5718 5716 5713 5709 5705 5703 5700 5700 5699 5699 5699 5699 5696 5693 5691 5689 5688 5686 5685 5686 5688 5690 5689 5690 5689 5689 5689 5687 5686 5683 5682
5745 5743 5740 5737 5734 5731 5728 5725 5722 5720 5718 5715 5713 5711 5708 5705 5700 5696 5694 5693 5692 5691 5690 5689 5688 5685 5683 5681 5680 5679 5678 5679 5679 5681 5681 5683 5683 5684 5684 5683 5682 5680 5677
5739 5736 5734 5731 5729 5727 5722 5719 5717 5715 5712 5709 5707 5705 5703 5700 5695 5690 5686 5684 5683 5682 5682 5681 5679 5676 5675 5673 5673 5673 5672 5671 5672 5673 5673 5674 5674 5675 5676 5677 5677 5676 5676
5731 5728 5727 5725 5722 5720 5717 5713 5711 5709 5706 5703 5700 5697 5695 5693 5688 5683 5679 5677 5675 5673 5673 5672 5670 5668 5668 5667 5666 5665 5664 5663 5663 5664 5664 5666 5667 5668 5669 5670 5670 5670 5670
5722 5721 5720 5717 5715 5713 5711 5708 5704 5701 5698 5696 5693 5689 5687 5685 5680 5675 5671 5669 5667 5665 5665 5663 5662 5661 5660 5659 5659 5658 5657 5657 5656 5656 5656 5657 5659 5660 5661 5661 5661 5661 5660
5714 5713 5712 5711 5709 5705 5703 5700 5698 5695 5691 5688 5686 5683 5679 5675 5671 5666 5663 5661 5659 5657 5654 5654 5654 5654 5653 5652 5652 5651 5651 5650 5648 5648 5647 5647 5648 5650 5651 5651 5651 5650 5649
5705 5705 5704 5704 5702 5699 5696 5693 5689 5687 5683 5680 5677 5674 5671 5667 5663 5660 5657 5654 5652 5649 5647 5647 5647 5646 5645 5644 5643 5642 5642 5641 5640 5639 5638 5637 5638 5638 5639 5640 5640 5640 5639
5697 5696 5697 5697 5695 5692 5689 5685 5681 5677 5674 5672 5669 5666 5663 5659 5656 5653 5650 5648 5646 5643 5642 5642 5641 5639 5638 5636 5635 5634 5633 5632 5631 5630 5629 5628 5628 5629 5629 5629 5630 5630 5631
5691 5690 5689 5688 5687 5685 5683 5680 5677 5673 5669 5667 5663 5659 5656 5653 5650 5646 5643 5640 5640 5638 5638 5636 5634 5633 5631 5629 5628 5626 5625 5624 5623 5622 5622 5621 5620 5620 5620 5620 5621 5622 5624
5683 5682 5681 5680 5680 5678 5676 5674 5671 5668 5665 5662 5659 5654 5649 5646 5643 5639 5636 5635 5634 5633 5632 5630 5627 5626 5623 5621 5619 5618 5617 5616 5615 5615 5614 5613 5612 5612 5611 5612 5613 5614 5615
5674 5672 5671 5671 5671 5670 5668 5666 5663 5661 5658 5656 5653 5650 5645 5641 5638 5635 5632 5631 5629 5627 5625 5623 5621 5618 5616 5614 5612 5611 5609 5608 5608 5607 5607 5606 5605 5604 5604 5605 5606 5607 5608
5667 5666 5663 5663 5662 5661 5659 5657 5655 5653 5651 5650 5648 5645 5639 5638 5635 5633 5629 5627 5624 5621 5619 5617 5614 5611 5610 5608 5606 5603 5602 5601 5600 5599 5599 5598 5598 5597 5597 5598 5599 5600 5601
5658 5657 5656 5655 5653 5651 5650 5649 5648 5646 5645 5643 5641 5638 5633 5633 5631 5628 5625 5622 5619 5616 5613 5610 5608 5606 5604 5602 5599 5596 5594 5593 5592 5591 5591 5591 5591 5591 5591 5591 5592 5593 5593
5649 5649 5649 5647 5645 5642 5641 5641 5640 5639 5638 5636 5634 5631 5627 5626 5624 5621 5618 5615 5613 5610 5607 5604 5601 5599 5598 5596 5593 5590 5587 5585 5584 5583 5582 5582 5583 5583 5584 5585 5586 5586 5587
5643 5642 5641 5640 5637 5635 5633 5632 5631 5631 5630 5628 5625 5623 5619 5617 5616 5614 5612 5609 5607 5604 5602 5599 5596 5593 5591 5588 5586 5583 5580 5577 5576 5576 5575 5574 5575 5576 5577 5578 5579 5580 5580
5635 5634 5633 5631 5629 5627 5625 5624 5622 5621 5621 5620 5617 5615 5612 5610 5608 5606 5604 5602 5599 5597 5595 5592 5589 5586 5583 5580 5577 5574 5571 5570 5568 5568 5568 5569 5569 5569 5570 5571 5572 5573 5572
5627 5626 5624 5622 5621 5619 5617 5615 5614 5613 5612 5611 5610 5608 5605 5603 5600 5598 5595 5593 5591 5589 5587 5585 5582 5579 5576 5573 5569 5566 5564 5563 5561 5560 5561 5562 5562 5563 5563 5563 5564 5565 5565